Location: Cheyres
(46.8153°N, 6.7877°E)
Time: 01:37:10
(UTC+00:00)

Tiros 1 - Pass Details

Date: 31 May 2022
Orbit: 629 x 663 km, 48.4° (Epoch: 05 July)

Event Time Altitude Azimuth Distance (km) Brightness Sun altitude
Rises 02:59:06 0° 286° (WNW) 2,926 10.2 -6.8°
Reaches altitude 10° 03:01:25 10° 285° (WNW) 2,020 9.4 -6.5°
Maximum altitude 03:06:03 74° 202° (SSW) 666 7.1 -5.9°
Drops below altitude 10° 03:10:44 10° 117° (ESE) 2,035 10.0 -5.3°
Sets 03:13:04 0° 115° (ESE) 2,948 10.9 -5.0°
